Hourly Data Report for December 05, 2020

SHEARWATER RCS
NOVA SCOTIA
Current Station Operator: ECCC - MSC

44°37'47.000" N
63°30'48.000" W
24.00 m
8205092
71264
AAW

Download Data

Hourly Data (December 2020)
Hourly Data Report for December 5, 2020
TIME
LST
Temp Definition
°C
Dew Point Definition
°C
Rel Hum Definition
%
Precip. Amount Definition
mm

Wind Dir Definition
10's deg

Wind Spd Definition
km/h
Visibility Definition
km
Stn Press Definition
kPa
Hmdx Definition


Wind Chill Definition


Weather Definition


00:00 10.6 7.8 83 0.0 21 14   101.28     LegendNANA
01:00 10.4 7.8 84 0.0 21 25   101.25     LegendNANA
02:00 9.5 7.8 89 1.1 21 20   101.27     LegendNANA
03:00 9.8 8.1 89 0.2 20 20   101.26     LegendNANA
04:00 10.1 7.7 85 0.0 22 16   101.20     LegendNANA
05:00 9.9 7.7 86 0.0 19 7   101.16     LegendNANA
06:00 9.0 7.4 89 0.0 3 1   101.16     LegendNANA
07:00 9.6 7.7 88 0.2 21 1   101.15     LegendNANA
08:00 9.8 8.7 93 0.2 13 4   101.15     LegendNANA
09:00 10.2 9.5 96 0.3 17 15   101.16     LegendNANA
10:00 10.7 10.1 96 1.2 19 14   101.17     LegendNANA
11:00 10.6 10.0 96 1.0 16 12   101.07     LegendNANA
12:00 10.2 9.8 98 0.2 16 10   100.98     LegendNANA
13:00 10.5 10.1 98 0.0 11 4   100.84     LegendNANA
14:00 10.4 10.0 97 0.0 10 10   100.72     LegendNANA
15:00 9.9 9.5 97 0.3 7 10   100.65     LegendNANA
16:00 10.1 9.7 98 1.2 8 17   100.48     LegendNANA
17:00 10.1 9.7 98 0.3 8 21   100.34     LegendNANA
18:00 10.7 10.3 98 0.0 9 13   100.21     LegendNANA
19:00 11.4 10.5 94 0.0 10 18   100.02     LegendNANA
20:00 12.1 10.8 92 1.0 12 25   99.88     LegendNANA
21:00 12.0 11.0 94 2.5 10 25   99.64     LegendNANA
22:00 11.3 10.5 95 1.4 10 23   99.47     LegendNANA
23:00 11.8 11.1 95 2.4 9 30   99.12     LegendNANA

Notes on Data Quality.

Legend

  • E = Estimated
  • M = Missing
  • NA = Not Available*
  • [empty] = Indicates an unobserved value
Date modified: